Location: B?dargowo
(53.3916°N, 14.4413°E)
Time: 03:34:05
(UTC+00:00)

ATLAS CENTAUR R/B - Pass Details

Date: 05 February 2023
Orbit: 450 x 653 km, 64.7° (Epoch: 19 March)

Event Time Altitude Azimuth Distance (km) Brightness Sun altitude
Rises 17:11:06 0° 249° (WSW) 2,967 6.9 -11.9°
Reaches altitude 10° 17:13:33 10° 257° (WSW) 2,040 5.8 -12.3°
Maximum altitude 17:17:56 40° 327° (NNW) 927 2.7 -12.9°
Enters shadow 17:21:52 11° 36° (NE) 1,856 3.6 -13.5°
